Flag for Finland Weather past 2 weeks in Tampere, Finland

Now
34 °F

Overcast.


Feels Like: 25 °F
Forecast: 24 / 33 °F
Wind: 13 mph from Southwest

Location: Tampere / Pirkkala

Current Time: Dec 20, 2014 at 12:52:45 AM

Latest Report: Dec 20, 2014 at 12:20 AM


Visibility: N/A

Pressure: 28.91 "Hg

Humidity: 100%

Dew point: 34 °F

Location of TampereLocation

Historic Weather in Tampere — Graph

°F

Tampere temperature yesterday

Maximum temperature yesterday: 37 °F (at 6:20 PM)
Minimum temperature yesterday: 32 °F (at 12:20 AM)
Average temperature yesterday: 35 °F

Past Weeks' High & Low Weather Summary

 TemperatureHumidityPressure
High39 °F (Dec 7, 7:20 PM)100% (Dec 4, 11:20 PM)30.18 "Hg (Dec 4, 11:20 PM)
Low27 °F (Dec 5, 12:20 AM)75% (Dec 10, 12:20 PM)28.85 "Hg (Dec 13, 7:50 AM)
Average34 °F97%29.53 "Hg
* Reported Dec 4 11:20 PM — Dec 19 11:50 PM, Tampere, Weather by CustomWeather, © 2014

Note: Actual official high and low records may vary slightly from our data, if they occured in-between our weather recording intervals... More about our weather records

Advertising

Tampere weather history for previous 24 hours

 ConditionsComfort  
Time TempWeatherWind HumidityBarometerVisibility
11:50 PM
Dec 19
34 °FSprinkles. Overcast.10 mph100%28.91 "Hg5 mi
11:20 PM34 °FScattered showers. Overcast.13 mph100%28.91 "HgN/A
10:50 PM36 °FSprinkles. Mostly cloudy.15 mph93%28.91 "HgN/A
10:20 PM36 °FOvercast.14 mph93%28.91 "HgN/A
9:50 PM36 °FSprinkles. Overcast.14 mph93%28.91 "HgN/A
9:20 PM36 °FMostly cloudy.12 mph93%28.91 "HgN/A
8:50 PM36 °FMostly cloudy.13 mph93%28.91 "HgN/A
8:20 PM36 °FSprinkles. Mostly cloudy.14 mph100%28.91 "HgN/A
7:50 PM36 °FMostly cloudy.12 mph100%28.91 "HgN/A
7:20 PM36 °FSprinkles. Overcast.12 mph100%28.91 "HgN/A
6:50 PM36 °FSprinkles. Partly cloudy.15 mph100%28.91 "HgN/A
6:20 PM37 °FSprinkles. Mostly cloudy.9 mph100%28.91 "HgN/A
5:50 PM36 °FSprinkles. Passing clouds.9 mph100%28.91 "HgN/A
5:20 PM36 °FSprinkles. Overcast.7 mph100%28.91 "Hg3 mi
4:50 PM36 °FFog.6 mph100%28.94 "Hg2 mi
4:20 PM36 °FSprinkles. Overcast.7 mph100%28.94 "Hg3 mi
3:50 PM34 °FFog.7 mph100%28.94 "Hg1 mi
3:20 PM34 °FLight rain. Fog.7 mph100%28.97 "Hg1 mi
2:50 PM36 °FLight rain. Fog.6 mph100%28.97 "Hg1 mi
2:20 PM36 °FFog.6 mph100%28.97 "Hg1 mi
1:50 PM36 °FDrizzle. Fog.6 mph100%29.00 "Hg1 mi
12:50 PM36 °FFog.6 mph100%29.00 "Hg1 mi
12:20 PM36 °FFog.5 mph100%29.03 "Hg1 mi
11:50 AM36 °FFog.6 mph100%29.03 "Hg1 mi
11:20 AM36 °FLight rain. Fog.6 mph100%29.03 "Hg1 mi
10:50 AM34 °FFog.6 mph100%29.06 "Hg1 mi
10:20 AM34 °FDrizzle. Fog.5 mph100%29.06 "Hg1 mi
9:50 AM34 °FPartly sunny.6 mph100%29.06 "Hg4 mi
9:20 AM34 °FDrizzle. Fog.7 mph100%29.06 "Hg2 mi
8:50 AM34 °FDrizzle. Fog.6 mph100%29.09 "Hg1 mi
8:20 AM34 °FFog.6 mph100%29.09 "Hg1 mi
7:50 AM34 °FFog.5 mph100%29.09 "Hg0 mi
7:20 AM34 °FFog.6 mph100%29.09 "Hg1 mi
6:50 AM34 °FScattered showers. Fog.6 mph100%29.12 "Hg2 mi
6:20 AM34 °FFog.6 mph100%29.12 "Hg2 mi
5:20 AM34 °FFog.6 mph100%29.15 "Hg1 mi
4:50 AM34 °FFog.6 mph100%29.15 "Hg1 mi
4:20 AM34 °FFog.6 mph100%29.18 "Hg1 mi
3:50 AM34 °FFog.7 mph100%29.18 "Hg2 mi
3:20 AM34 °FLight fog.6 mph100%29.21 "Hg5 mi
2:50 AM34 °FFog.6 mph100%29.21 "Hg3 mi
2:20 AM34 °FFog.6 mph100%29.21 "Hg3 mi
1:50 AM34 °FFog.6 mph100%29.24 "Hg3 mi
1:20 AM34 °FFog.6 mph100%29.24 "Hg1 mi
12:50 AM34 °FFog.6 mph100%29.24 "Hg1 mi
12:20 AM32 °FIce fog.6 mph100%29.24 "Hg2 mi
Weather by CustomWeather, © 2014

See weather overviewHow to use our weather pages